Theta_e
349 347 349 353 356 359 361 361 352 348 346 336 339 341 342 346 345 346 345 346 347 348 349 348 349 348 348 348 350 351 350 350 350 350 348 350 353 353 353 352 352 351 351 350 348 347 347 348 347 348 347 344 344 344 345 344 345 345 345 344 344 344 344 344 343 341 340 340 340 340 339 338 337 337 337 336 335 334 332 330 329 330 332 336 339 340 340 341 341 341 341 339 338 337 337 337 338
348 348 351 355 357 359 359 358 346 338 337 332 338 343 344 347 345 346 346 347 347 348 349 349 348 348 349 349 350 349 349 350 350 351 351 351 352 352 353 353 353 352 352 351 348 347 347 348 347 348 347 344 344 344 344 344 344 343 343 343 343 344 344 344 343 342 341 341 340 340 339 339 338 338 338 335 334 333 331 330 330 331 336 339 340 340 341 341 341 341 339 338 337 337 337 337 339
349 351 354 356 359 360 359 354 341 331 331 330 335 345 347 347 346 346 347 348 348 349 349 348 348 348 348 347 348 349 349 350 350 351 352 351 351 352 352 353 353 352 352 351 350 348 346 347 347 348 347 345 344 345 344 343 343 342 342 342 342 344 344 344 343 342 342 341 341 341 340 339 339 338 337 335 334 333 333 331 331 333 338 340 340 341 340 340 340 340 338 336 336 338 338 338 339
352 354 356 359 361 360 355 346 338 331 329 329 332 343 347 347 347 346 350 350 349 349 348 348 349 350 350 347 348 349 350 351 351 351 352 351 351 351 351 351 351 352 352 352 350 348 347 347 347 347 347 345 344 345 344 343 343 342 342 342 342 343 344 345 344 343 342 342 341 341 340 339 339 338 336 335 334 335 334 333 333 335 338 339 340 341 340 339 339 338 336 336 338 339 339 339 339
353 356 358 361 360 353 349 340 338 332 331 333 333 342 346 347 348 347 351 350 350 349 348 348 348 350 351 349 350 350 350 351 350 352 352 351 351 351 350 349 350 353 352 352 349 347 347 347 347 347 347 346 345 345 345 344 343 343 343 342 342 342 343 344 343 343 342 342 341 340 339 338 338 336 335 335 335 335 335 334 335 336 338 340 340 340 339 339 339 336 336 337 339 340 340 340 340
355 359 359 360 359 353 349 335 332 331 336 341 337 343 345 347 350 349 351 350 350 349 348 348 347 349 350 350 351 351 351 351 350 352 352 351 352 351 350 350 352 353 351 351 349 348 347 347 347 347 347 347 346 345 344 344 343 342 343 343 342 342 343 343 342 342 341 340 340 339 339 338 337 335 335 336 335 335 334 334 336 337 339 340 340 339 339 339 337 336 336 338 339 340 341 341 341
357 360 360 359 357 352 344 331 331 333 337 343 340 343 345 348 351 350 351 350 349 349 349 348 348 348 349 349 350 351 351 351 351 351 352 351 351 351 352 352 353 352 350 349 349 349 348 346 346 346 347 346 345 345 344 344 343 342 343 344 343 343 343 343 341 340 340 339 339 339 339 337 336 335 335 335 335 334 334 335 336 337 339 340 339 339 339 338 338 338 338 339 339 340 341 341 341
357 358 357 355 349 343 337 331 334 336 338 342 343 345 345 349 351 349 349 349 348 348 349 348 347 346 348 349 350 351 351 351 351 351 351 351 351 351 352 353 352 351 349 349 349 349 347 346 347 347 347 346 345 346 345 345 344 343 344 344 343 343 344 343 342 341 340 340 340 339 339 337 336 334 335 335 334 335 335 336 337 338 339 339 338 338 338 338 338 338 339 339 340 340 341 340 340
355 355 355 351 342 336 334 333 336 338 341 342 343 346 347 349 350 350 348 349 349 349 349 347 346 346 348 351 350 350 352 352 351 351 352 351 351 350 351 353 352 351 350 349 348 348 347 347 348 347 347 346 346 346 346 346 345 345 345 344 343 343 343 342 342 342 342 341 341 340 339 338 337 335 335 335 335 335 336 337 338 338 338 337 337 336 336 336 338 338 339 340 340 340 340 340 340
355 353 351 347 338 332 329 331 335 338 341 342 344 347 348 348 349 350 348 348 349 350 349 348 347 348 349 350 350 351 352 352 351 352 353 352 352 350 350 352 352 352 350 349 348 348 347 347 348 347 347 346 346 346 346 346 346 345 345 344 343 343 342 342 342 341 342 341 341 340 339 339 338 337 336 336 336 337 338 338 338 338 338 336 335 335 336 337 339 340 340 340 340 340 340 340 341
355 351 350 342 333 329 327 330 334 338 341 342 344 347 348 348 348 349 350 349 349 350 349 347 347 349 350 351 352 352 352 351 352 352 353 352 352 351 350 350 351 352 352 350 348 348 348 348 347 347 347 346 347 346 346 346 345 345 344 343 343 343 342 342 342 341 341 341 340 339 339 339 339 338 338 338 338 339 339 338 338 339 337 334 335 337 338 339 341 341 341 340 340 341 340 340 340
352 348 347 339 331 331 331 332 334 338 341 341 343 346 347 347 348 347 348 348 349 350 348 348 348 348 349 350 351 351 351 352 351 352 353 352 352 352 351 350 350 352 352 350 348 348 347 348 347 347 347 347 347 346 345 345 344 344 343 342 343 343 343 342 342 342 341 341 341 340 340 340 339 339 339 340 340 340 339 339 339 338 334 333 336 338 339 341 341 340 340 341 341 341 340 340 340
350 346 342 336 335 335 335 335 336 339 339 341 342 345 346 347 347 346 347 348 348 348 346 349 348 347 348 349 350 349 351 352 352 352 353 353 353 353 352 350 350 351 352 351 349 348 347 348 347 347 347 346 346 345 344 344 343 343 343 343 343 343 343 342 342 342 342 342 341 341 341 340 340 340 340 340 340 340 341 341 337 333 333 336 339 339 339 341 340 340 341 341 342 341 341 340 339
350 347 341 338 338 338 336 336 337 336 336 341 344 345 346 347 347 347 347 345 346 348 347 349 347 347 350 350 349 349 351 351 351 352 353 353 352 352 352 351 350 350 351 351 349 348 347 347 347 347 346 346 346 346 344 344 343 343 343 343 343 343 343 342 342 342 342 342 342 341 341 341 340 340 341 341 341 341 341 338 334 332 336 339 340 340 340 341 341 341 341 341 341 340 341 341 339
350 347 342 339 337 336 337 337 338 335 335 341 345 346 346 347 347 347 347 344 347 349 347 347 347 347 349 349 350 349 351 351 352 352 353 352 352 352 352 351 350 348 349 350 350 349 348 347 347 347 346 347 347 346 345 343 343 344 343 343 343 343 343 342 342 342 342 342 343 342 341 341 340 340 340 340 340 340 337 335 333 334 338 340 340 340 340 340 341 341 341 341 340 340 341 341 340
349 347 342 338 335 333 335 339 339 336 337 342 346 347 346 346 347 347 348 348 349 348 346 347 348 347 346 348 350 350 350 351 352 353 352 352 352 352 350 350 349 348 349 349 349 350 349 349 348 348 348 348 346 346 345 344 344 343 343 343 343 343 343 342 342 342 342 342 342 341 340 339 339 339 337 338 337 334 333 333 335 337 338 339 339 339 340 340 341 341 341 340 340 340 340 340 339
348 347 342 336 334 333 336 339 339 337 339 344 347 347 346 345 346 348 349 349 348 347 347 347 347 347 347 349 351 351 350 350 352 353 353 352 352 351 350 350 349 348 348 348 349 348 348 348 347 347 348 347 347 347 346 346 343 342 343 343 343 342 342 341 341 341 341 341 340 339 338 339 342 341 339 339 337 334 334 334 336 337 337 337 338 339 340 340 341 341 341 340 340 340 340 339 338
346 346 341 335 334 336 337 339 340 339 341 344 347 347 346 345 347 349 348 347 346 347 348 347 348 348 348 350 352 352 351 350 351 352 352 352 352 352 351 351 350 349 348 348 349 349 348 347 347 347 347 347 347 347 347 347 343 343 344 342 342 341 341 340 340 341 340 341 340 338 340 342 343 342 341 340 338 337 338 336 336 336 336 337 338 339 339 339 340 340 340 340 340 339 339 338 338
344 344 340 337 337 339 338 340 340 340 341 345 347 346 346 346 347 348 345 346 346 347 348 347 348 349 350 352 352 352 351 350 350 351 351 352 352 352 352 351 351 351 349 349 348 349 349 348 348 347 347 347 347 347 347 347 343 343 345 342 342 341 341 341 341 342 342 342 341 340 341 341 340 339 338 337 337 338 337 336 336 336 337 338 339 339 339 339 338 339 339 339 339 339 339 339 339
343 343 340 339 339 339 340 341 340 341 342 345 347 346 347 347 347 346 345 345 344 344 346 347 349 350 351 352 352 352 351 350 350 350 350 350 350 351 351 352 352 352 351 350 349 348 349 349 348 348 347 346 347 347 346 347 345 344 346 345 344 343 342 342 343 343 342 342 341 340 339 338 336 336 336 336 337 338 338 338 338 340 339 340 340 339 342 342 338 339 339 339 339 339 342 342 339
341 342 340 339 340 339 339 341 340 341 342 345 347 347 347 347 347 346 346 344 341 343 345 345 348 350 351 352 352 352 351 351 350 350 350 350 350 350 350 351 352 352 352 351 350 348 348 349 347 348 348 346 347 347 346 347 346 346 347 347 346 346 344 344 344 343 342 340 340 338 337 335 333 334 335 336 338 338 340 341 343 346 344 343 342 341 346 345 341 343 342 341 343 343 343 341 338
338 340 340 340 341 339 340 340 340 341 342 345 347 346 346 348 348 345 346 343 340 342 343 343 347 349 350 351 351 352 352 351 351 350 350 350 350 350 350 350 350 351 352 352 352 350 348 348 347 347 347 346 347 347 346 346 347 347 347 347 346 346 346 346 345 343 342 340 340 339 337 336 333 334 336 336 339 340 341 344 347 349 347 347 346 345 347 345 343 345 344 344 345 344 342 339 337
336 337 339 341 341 340 340 340 340 341 342 345 346 346 347 348 347 346 346 344 342 342 342 344 347 349 349 350 351 351 352 352 351 351 351 351 351 350 351 351 351 351 351 351 352 351 348 347 347 346 348 347 346 347 347 347 346 346 347 345 345 345 345 346 345 344 343 341 341 340 341 342 340 341 342 339 340 342 344 347 349 351 350 351 350 348 348 346 345 344 343 343 341 341 340 338 339
335 336 338 340 340 340 339 338 339 340 342 345 346 346 348 346 345 345 345 345 345 344 344 346 348 349 349 350 351 350 351 352 351 352 352 352 351 351 351 351 351 351 351 351 351 351 348 346 345 345 348 347 346 346 346 347 346 346 347 345 344 345 344 345 346 345 344 343 342 341 342 344 345 347 347 345 344 346 348 348 349 351 351 351 351 349 348 347 344 343 343 342 341 341 341 343 345
335 335 338 339 339 339 336 335 337 340 342 344 347 346 347 346 344 346 345 344 346 346 347 348 349 349 349 350 350 351 351 351 351 352 352 352 352 352 352 352 352 351 351 351 351 351 349 345 343 343 346 347 346 346 346 347 345 345 347 345 345 344 343 346 346 345 345 344 343 341 342 343 346 349 350 349 349 349 350 349 350 351 351 351 351 350 350 347 343 344 344 343 343 343 345 347 348
334 336 338 338 337 336 334 334 337 340 342 345 347 346 346 346 346 346 344 345 347 348 349 349 349 348 349 350 350 351 352 351 351 351 352 352 352 352 352 352 352 352 351 351 351 351 350 345 342 342 344 345 345 346 346 346 345 345 346 345 345 344 343 345 346 347 347 347 346 342 343 343 345 350 351 352 351 351 351 351 351 351 351 351 349 349 351 349 345 344 343 343 345 345 346 347 344
335 335 336 336 335 335 335 335 337 339 342 346 345 343 346 348 346 344 344 347 349 349 349 349 348 348 349 350 350 352 352 351 351 351 351 351 352 352 352 352 352 353 352 352 352 351 351 348 345 343 343 344 344 345 345 346 345 345 345 344 345 345 344 344 346 347 349 350 348 343 343 344 344 348 350 351 352 352 351 352 352 351 351 351 349 349 350 349 344 342 342 343 344 343 343 343 340
333 333 334 335 335 336 337 337 338 340 345 347 344 344 348 349 345 342 345 348 349 350 351 349 349 349 349 349 350 353 352 351 351 351 351 351 352 351 350 351 350 351 351 351 351 351 351 349 348 345 342 343 343 344 345 345 344 343 344 344 344 344 343 345 347 348 348 348 346 343 344 345 344 345 346 349 351 352 352 352 352 350 351 350 349 348 348 346 343 342 343 342 342 341 341 342 339
333 334 334 336 337 337 338 338 340 342 345 346 345 345 347 348 344 344 348 349 349 350 351 350 349 349 350 350 351 354 353 352 352 351 351 351 351 350 349 349 348 349 349 349 350 349 349 349 348 346 344 344 341 341 343 342 342 342 343 343 343 343 343 344 347 348 348 347 344 343 345 345 344 345 344 346 349 351 351 349 349 350 351 348 347 346 345 344 344 344 343 342 343 342 341 340 337
333 334 334 337 335 336 339 340 341 343 345 346 345 338 339 346 345 346 350 348 348 350 351 350 349 350 350 350 351 354 353 352 353 351 351 351 350 349 348 349 348 348 349 349 348 347 348 349 348 346 344 345 343 343 343 341 340 341 340 342 342 342 343 344 346 347 345 345 344 344 345 345 345 345 345 345 346 348 348 347 347 348 348 346 346 345 344 346 346 344 343 343 343 341 340 337 335
333 335 336 336 330 331 340 341 342 343 344 349 344 332 333 341 344 349 351 349 349 350 352 350 349 350 350 351 352 354 354 353 353 352 352 352 351 349 349 349 349 348 350 350 348 343 344 347 346 345 341 341 343 343 343 342 340 339 340 342 343 342 343 345 346 346 346 346 346 347 346 345 345 345 345 345 345 347 349 350 348 347 347 347 347 346 345 346 345 343 343 342 340 338 338 337 337
334 332 330 333 329 331 342 342 341 343 345 349 343 333 334 339 345 351 351 349 349 349 351 352 350 350 351 351 353 353 354 354 354 352 352 351 351 350 349 350 350 349 350 350 348 342 340 341 340 342 339 338 339 339 341 343 340 339 340 342 343 343 343 345 346 347 348 348 349 350 348 344 345 346 346 347 347 348 350 351 349 347 347 347 347 346 344 344 344 344 343 337 334 331 333 338 339
335 332 326 328 329 331 339 342 342 344 345 347 343 337 336 339 346 352 351 349 350 349 351 352 351 351 351 352 351 352 353 354 354 352 352 352 351 351 350 351 351 350 349 348 345 339 338 339 337 339 339 338 338 337 339 340 339 340 342 343 344 344 345 347 347 346 348 349 350 352 349 344 346 347 347 348 348 349 350 350 350 347 347 347 346 343 342 343 343 340 336 330 329 329 334 339 340
330 333 328 329 330 330 333 339 344 344 345 345 343 341 338 341 348 352 351 350 350 350 351 352 352 352 352 352 350 351 353 354 354 352 352 352 351 351 351 350 351 351 348 346 342 337 338 338 337 338 338 338 338 338 339 339 339 341 344 344 345 346 346 347 349 348 347 348 349 349 347 345 346 348 348 348 349 349 348 348 349 348 345 344 342 341 342 341 335 332 330 329 331 334 337 337 336
327 329 327 328 331 330 331 338 342 343 344 344 343 342 340 342 349 351 351 351 350 350 351 351 352 352 353 353 351 350 351 353 354 352 351 352 352 351 351 351 352 352 351 348 341 337 338 338 338 338 338 338 338 339 341 341 341 342 343 344 345 346 345 345 346 348 348 348 348 346 346 346 347 348 349 349 349 348 347 346 346 345 342 340 340 340 339 336 332 331 332 332 334 337 335 332 333
331 332 330 327 328 329 333 338 341 343 344 342 342 342 341 342 346 351 351 351 351 351 351 352 352 352 353 353 352 351 351 351 353 352 351 352 352 351 351 351 352 352 353 350 343 339 341 340 340 340 340 340 339 341 343 343 343 343 344 344 345 344 343 343 342 345 347 347 348 346 346 346 347 348 349 348 347 346 346 345 345 343 339 337 336 335 335 336 335 334 334 333 334 337 335 332 331
334 334 332 330 328 329 334 337 340 344 342 340 341 342 342 342 343 350 352 351 352 352 352 353 352 352 353 353 353 352 352 351 351 351 351 352 352 352 352 351 352 353 353 349 343 341 344 343 342 343 343 342 342 344 345 345 345 345 345 344 345 344 342 341 341 343 345 347 348 346 346 347 348 349 348 348 347 345 345 344 343 338 333 331 330 331 333 336 336 334 333 331 333 335 336 336 329
333 332 330 329 328 330 335 339 341 344 340 338 342 341 342 342 342 349 353 351 351 352 352 353 353 353 352 353 353 353 353 352 351 352 351 351 352 352 352 352 352 353 351 348 344 342 344 344 343 343 344 345 344 345 347 347 346 346 345 344 345 346 345 343 343 344 346 348 348 346 346 347 347 347 348 347 346 345 344 342 338 332 330 330 330 331 330 331 331 331 332 334 336 333 333 335 327
331 331 329 326 329 332 335 340 343 343 339 338 341 341 341 343 343 347 352 352 351 352 352 352 353 354 353 353 353 353 354 353 353 353 352 350 351 352 353 353 352 352 352 349 345 343 344 344 343 343 345 347 346 346 347 348 347 345 343 342 343 347 348 348 348 349 349 349 347 346 345 345 345 345 346 346 345 343 341 339 334 330 332 332 333 332 328 327 327 328 333 335 334 333 333 334 326
330 331 327 325 330 330 330 336 342 344 341 339 340 341 341 344 344 344 349 352 352 351 351 351 352 354 354 353 354 353 354 354 354 354 352 350 350 352 353 353 352 352 353 352 347 343 345 344 344 345 345 346 347 348 347 347 347 344 342 343 343 346 349 349 349 349 348 347 346 345 345 344 345 345 344 344 343 340 337 335 332 331 334 334 333 331 328 330 332 333 336 330 326 332 337 336 329
329 331 328 327 331 331 331 336 340 342 342 342 340 336 337 342 343 342 346 349 350 351 351 351 352 354 355 354 354 354 354 355 355 354 352 351 350 351 351 352 352 353 353 353 349 345 344 345 344 344 345 345 346 347 346 345 345 345 345 346 346 348 349 350 349 349 348 347 346 346 346 344 344 344 342 340 339 337 335 333 331 332 334 333 331 330 329 334 335 336 335 327 323 329 335 337 334
326 330 331 330 332 334 335 337 337 334 334 340 339 329 329 338 341 341 343 347 349 351 352 353 353 354 355 355 355 354 354 356 356 355 353 352 351 350 351 351 351 352 351 350 350 347 344 345 345 344 345 345 345 345 344 344 346 347 349 349 349 350 350 349 348 348 348 347 346 347 345 341 341 341 339 337 337 336 333 332 333 334 333 332 331 328 329 334 334 333 331 328 329 330 330 335 338
322 328 333 332 333 333 335 335 333 327 328 338 340 329 326 331 336 341 342 345 348 351 352 353 355 355 355 355 355 355 355 355 356 356 354 352 352 351 352 352 350 350 349 349 349 348 345 345 345 345 345 345 345 345 345 345 346 348 350 350 350 350 349 348 345 343 344 345 344 344 342 339 339 339 337 337 337 335 334 335 336 333 331 334 332 326 330 336 335 333 329 328 334 333 329 333 337
323 330 332 332 332 331 333 333 330 329 330 334 338 334 326 325 332 341 343 343 348 353 353 353 355 356 355 355 355 355 355 355 356 357 355 353 352 352 353 352 349 348 349 349 350 348 346 345 345 345 346 345 345 345 345 345 346 347 348 349 350 350 349 347 343 340 340 341 340 339 340 340 340 338 337 338 338 337 338 339 338 335 333 334 329 326 334 337 332 329 326 325 328 329 328 330 334
326 332 332 331 332 331 332 330 329 331 329 326 331 334 327 323 332 344 347 343 347 352 352 353 354 355 356 355 354 354 354 355 355 356 356 355 354 353 354 351 346 345 350 351 349 348 346 346 346 346 345 345 345 345 346 345 346 347 348 348 350 349 347 345 344 343 341 339 339 339 340 340 340 338 336 338 339 339 340 340 338 335 331 327 325 331 337 333 325 324 324 325 326 327 328 326 328
328 331 331 331 331 331 331 330 328 328 326 323 327 330 326 324 328 338 343 343 344 348 349 352 355 355 355 355 354 353 354 355 354 355 355 355 354 354 353 351 345 343 349 350 347 346 346 346 346 346 346 346 346 346 346 346 346 347 348 349 349 349 348 345 344 345 343 340 340 340 340 340 340 339 336 338 341 341 340 341 339 333 328 324 326 334 336 327 321 321 321 325 326 326 328 327 327
328 329 329 330 330 330 330 330 328 325 323 325 327 328 328 324 325 332 341 343 342 342 343 347 353 355 355 355 355 354 354 355 355 354 355 355 355 354 353 352 347 342 344 346 344 344 345 346 345 345 345 346 346 346 346 346 346 346 348 348 348 348 348 346 344 344 343 343 344 343 341 340 341 341 339 338 341 342 341 342 340 334 329 326 324 330 333 330 330 328 323 322 323 323 326 328 327
326 328 328 326 326 328 327 327 328 324 323 326 327 328 328 323 325 331 340 344 341 338 339 340 346 353 356 355 355 355 354 355 356 355 355 355 355 354 354 353 349 343 341 342 343 343 344 345 345 345 345 345 346 346 347 347 346 346 347 347 348 348 347 346 344 343 343 345 345 344 342 341 343 345 343 340 340 342 342 340 336 333 331 329 327 330 334 334 335 332 325 322 323 322 324 326 327
325 325 324 322 322 324 323 322 324 323 323 327 328 327 327 325 329 335 338 339 339 339 339 338 340 347 354 356 355 354 354 354 356 356 355 355 355 355 354 353 349 344 343 343 342 343 343 344 345 345 345 345 346 346 347 347 347 347 347 347 348 347 347 346 343 342 343 344 343 344 344 345 346 346 344 343 342 342 341 337 329 326 327 327 329 332 332 329 328 328 324 322 323 323 323 324 326
324 322 321 320 320 322 322 321 323 322 322 325 329 328 325 325 332 337 338 338 338 338 337 338 340 344 349 354 355 354 354 354 354 356 355 354 355 355 354 350 347 345 344 344 344 344 344 343 344 345 346 346 346 347 347 347 347 347 347 346 347 347 346 346 344 342 343 343 342 343 344 344 344 344 342 340 341 340 338 333 323 320 321 322 324 326 326 324 322 323 323 323 326 326 324 324 327
324 325 324 322 321 322 322 321 321 322 322 323 327 328 323 323 331 338 339 338 337 337 336 338 343 345 347 351 354 353 354 354 354 355 354 352 351 352 351 348 346 345 345 344 345 345 344 344 344 344 345 346 347 347 347 348 347 347 347 346 346 346 346 346 345 343 342 342 340 340 340 340 340 341 338 335 336 336 334 330 323 318 318 319 321 321 323 326 325 323 323 325 329 330 327 325 327
323 325 323 321 323 325 322 321 322 321 321 322 324 326 328 329 335 341 339 338 337 337 338 340 342 346 348 349 351 352 352 353 354 355 355 352 348 347 347 346 346 345 344 344 345 345 345 345 344 344 344 345 347 347 348 348 347 347 347 346 346 346 346 347 346 344 343 340 339 339 339 337 335 336 335 333 335 335 333 330 323 318 317 318 319 322 328 333 331 327 326 328 331 332 329 325 325
323 322 320 323 329 328 322 321 323 322 320 322 323 325 328 330 335 338 337 336 335 336 338 339 340 344 348 349 349 351 352 352 354 355 355 354 349 345 344 345 345 344 344 344 344 344 344 345 346 344 344 345 346 347 348 348 348 347 347 347 346 347 346 346 346 345 342 340 340 340 339 337 333 331 333 334 336 335 331 326 322 319 318 318 319 324 330 333 331 328 328 330 332 333 330 327 327
323 320 321 326 329 329 325 321 322 322 320 321 321 322 324 324 327 335 336 335 334 334 336 336 338 344 348 349 348 349 351 352 353 354 355 355 352 347 343 344 344 342 343 344 343 343 344 345 346 345 344 344 345 347 347 348 348 348 347 348 348 347 346 345 346 344 341 340 340 337 338 338 332 330 334 336 336 334 329 324 322 321 318 318 320 323 327 328 326 326 328 327 328 328 329 328 328
324 324 326 326 323 322 324 322 321 321 320 320 320 321 322 322 326 332 335 335 335 335 336 334 336 344 349 348 348 350 351 351 352 354 355 356 354 351 347 345 345 344 342 343 343 343 344 344 345 346 344 343 344 346 347 347 348 348 348 348 348 348 347 345 345 344 340 337 337 335 337 338 333 331 335 336 334 332 328 324 322 319 317 318 320 321 323 324 322 322 324 324 323 324 326 327 327
324 325 327 326 323 322 323 323 322 321 320 320 320 319 321 326 331 334 335 337 336 335 336 336 334 339 348 349 348 350 350 350 351 353 354 353 352 353 350 346 345 344 342 343 343 343 344 343 344 345 345 345 344 345 346 347 348 348 348 348 348 348 347 345 344 342 337 335 336 337 337 337 334 330 330 332 333 331 325 320 318 318 318 318 318 320 321 321 321 322 323 324 324 326 328 328 329
321 321 322 323 324 324 323 323 323 322 320 320 320 319 320 329 335 336 336 337 336 335 336 336 336 335 341 346 348 349 351 351 351 352 354 353 351 353 354 351 349 346 344 343 344 343 343 344 344 344 345 346 345 345 345 346 347 348 348 348 349 348 347 345 342 340 336 335 336 336 334 334 334 328 327 330 331 326 320 316 318 323 323 319 317 319 320 319 319 322 325 325 325 328 329 329 330
323 321 320 321 323 322 320 321 323 323 321 320 320 319 321 331 337 336 336 336 335 336 335 335 336 334 336 344 348 350 352 352 351 351 352 353 353 353 355 355 353 350 348 346 346 347 345 344 344 344 345 345 345 345 345 345 346 347 348 348 348 349 346 344 341 338 336 336 336 335 333 334 335 332 330 330 326 319 316 317 321 324 323 320 317 318 319 319 318 322 326 326 326 328 329 330 331
Wind_Speed
3 2 2 1 2 3 4 5 2 3 2 5 6 5 7 8 9 9 9 8 7 6 6 8 8 6 5 8 11 12 11 6 3 2 5 9 11 11 13 15 15 14 13 13 14 15 16 17 19 20 20 21 22 21 21 20 21 21 20 20 20 20 20 20 19 19 19 18 17 16 15 13 12 11 10 10 9 8 8 9 9 9 9 10 10 10 10 10 10 11 11 11 12 12 12 12 12
3 2 1 1 3 4 3 5 2 3 4 6 6 6 7 6 7 9 8 6 7 7 8 10 8 7 8 12 13 9 11 10 7 9 11 12 14 13 14 17 16 16 13 13 14 15 15 17 19 19 19 20 22 21 20 19 20 20 20 20 19 19 19 20 19 18 18 17 16 15 14 12 11 10 9 9 9 8 8 9 8 8 8 9 9 9 9 9 10 10 10 11 12 12 12 12 11
4 2 1 1 4 7 6 5 2 3 5 6 7 6 5 6 8 9 8 8 10 10 10 9 8 7 6 11 9 6 7 10 12 15 14 13 15 15 16 18 18 17 15 15 15 15 15 17 19 19 19 20 21 20 19 19 19 18 19 20 19 18 18 19 18 17 17 16 15 14 13 12 11 10 10 9 9 8 8 8 7 7 8 8 8 8 9 9 9 10 10 11 11 12 12 12 12
5 3 3 2 5 7 5 2 2 4 5 5 6 6 5 7 9 9 9 10 10 10 10 9 7 6 4 9 7 8 10 11 13 13 14 13 14 17 18 19 20 17 16 15 16 16 16 17 19 20 20 19 20 20 19 17 18 17 18 20 19 18 18 17 17 17 16 15 14 13 13 12 11 10 9 9 9 8 7 7 6 7 7 7 7 8 8 8 9 9 10 11 11 11 12 12 11
6 3 4 4 5 2 3 1 3 5 6 5 6 6 6 8 9 9 9 9 9 8 8 6 6 6 9 10 4 8 12 11 12 11 13 15 15 18 19 21 20 17 15 15 17 18 18 18 19 20 20 20 20 20 19 18 18 18 18 20 19 19 18 16 16 16 15 14 14 13 12 11 10 10 9 8 8 7 6 6 6 7 6 7 7 7 7 7 8 8 9 10 10 11 11 11 11
6 4 3 6 5 3 2 2 5 7 6 5 6 7 6 8 9 10 10 9 7 6 6 4 6 9 9 11 9 11 10 11 13 11 14 17 17 18 19 20 18 16 17 16 18 19 20 20 19 20 20 20 21 21 20 19 18 18 18 18 18 18 18 17 16 15 14 14 13 12 11 10 10 9 9 8 7 7 6 6 6 6 6 6 6 6 6 6 6 7 8 9 9 9 10 10 10
6 4 3 5 5 3 1 6 6 7 6 6 6 7 7 9 10 11 10 9 7 6 4 4 8 9 8 9 11 10 8 11 13 12 16 18 18 19 18 19 19 18 19 18 18 19 19 20 20 21 21 21 20 20 20 19 18 18 18 17 17 17 17 17 16 15 14 13 12 11 10 9 9 9 8 7 7 6 5 5 5 5 5 5 5 5 5 5 6 6 7 8 8 8 9 9 10
5 4 3 4 3 2 3 8 6 6 6 6 8 7 7 8 10 10 9 8 7 7 5 7 9 7 8 9 9 9 9 11 13 15 18 19 18 19 17 17 20 20 20 19 19 20 19 19 20 20 21 20 19 19 18 18 18 17 18 17 16 16 15 15 15 14 13 13 12 11 10 9 9 9 8 7 6 5 4 5 5 5 4 4 3 4 4 5 5 6 7 8 8 8 8 9 9
5 5 3 4 2 2 4 6 6 6 6 7 8 8 8 8 8 8 8 7 7 8 8 9 6 5 10 10 12 11 10 12 15 17 18 19 18 18 18 17 19 20 20 19 19 20 19 18 19 20 20 20 19 18 17 17 17 17 17 16 16 15 14 14 14 13 13 12 11 11 10 9 9 8 7 6 5 4 4 5 5 4 3 2 2 2 3 4 5 6 7 8 8 9 8 9 9
5 4 3 3 2 3 5 5 6 6 7 7 7 8 8 8 7 7 7 7 9 9 8 7 4 8 14 13 13 10 11 15 17 18 17 18 17 17 18 18 19 20 19 19 19 19 19 19 19 20 20 20 20 19 17 16 16 16 16 15 14 14 14 13 13 12 12 11 10 10 9 9 9 8 7 7 6 5 5 5 5 3 2 1 2 3 3 4 5 6 7 8 8 8 8 8 8
5 3 4 3 1 4 5 5 6 6 7 6 7 8 7 8 7 6 6 8 9 8 9 7 7 14 15 14 12 11 15 17 17 18 18 17 17 16 16 18 19 18 18 20 20 19 19 19 20 21 20 20 19 18 17 16 15 15 15 14 14 14 13 13 12 12 11 10 10 9 9 9 9 8 8 7 6 6 5 5 4 3 1 1 2 3 3 4 5 6 7 7 8 7 7 7 7
4 1 3 3 3 5 5 5 6 6 6 6 7 7 6 7 7 7 8 8 8 9 10 7 10 15 13 12 11 13 16 16 17 18 18 17 17 16 16 18 19 18 18 20 20 20 19 19 20 20 20 19 17 17 16 16 15 14 14 14 14 13 13 12 12 11 11 10 10 9 9 9 8 8 7 7 6 6 5 5 4 2 0 1 2 3 4 5 5 6 7 6 7 6 6 6 6
5 1 2 2 3 3 5 4 5 4 5 5 7 7 6 7 6 7 8 9 8 8 9 7 12 14 10 13 14 16 17 17 18 17 18 17 16 17 17 18 19 18 18 19 20 20 19 19 19 19 19 18 17 16 16 15 14 14 13 13 13 13 12 12 11 11 10 10 9 9 8 8 7 7 6 6 6 6 5 4 3 1 1 1 2 3 4 5 6 6 7 6 6 5 5 5 6
5 3 3 2 2 2 4 3 4 3 4 6 8 8 7 5 4 6 8 10 7 6 8 9 13 12 11 14 15 18 19 18 19 18 18 17 17 17 17 18 19 19 18 18 19 20 19 19 18 18 18 17 16 15 14 14 14 13 13 12 12 11 11 10 10 10 9 9 8 8 7 7 6 6 6 6 6 5 4 3 3 2 2 2 2 3 5 6 6 7 6 5 5 4 4 5 6
5 3 4 2 1 1 2 2 3 3 5 7 8 9 8 4 5 7 6 7 7 8 10 10 11 8 11 13 14 21 22 21 20 18 18 18 18 17 17 18 19 19 19 18 18 19 19 18 18 18 17 16 15 14 13 13 13 13 12 11 11 11 10 10 10 9 9 8 8 7 7 6 6 6 6 6 5 4 4 4 3 3 2 2 3 4 5 5 6 6 6 5 5 4 3 4 5
5 4 4 2 1 1 2 2 2 2 5 8 10 10 8 6 6 7 4 5 9 11 9 10 10 4 9 13 15 23 24 23 22 19 19 19 19 18 18 19 18 19 19 19 18 18 18 18 18 17 16 15 14 13 13 12 12 12 11 11 10 10 10 9 9 9 9 8 8 7 6 5 5 4 4 4 4 4 5 5 4 3 3 3 4 5 5 5 6 6 6 6 5 4 4 5 6
5 5 4 2 0 1 2 3 1 4 6 9 12 12 8 9 8 6 5 5 9 11 8 10 9 3 7 12 18 26 25 24 22 20 21 20 19 18 19 19 18 19 18 19 18 17 17 17 17 16 15 15 14 13 12 11 11 11 10 10 10 10 10 9 9 8 8 7 7 6 6 5 5 5 5 5 5 5 5 5 4 4 4 4 5 6 6 6 6 6 6 6 5 5 5 6 7
5 4 4 2 1 3 2 2 2 4 6 9 12 12 8 10 11 8 8 7 9 10 9 12 8 5 9 15 22 27 26 25 23 21 21 21 20 19 20 19 19 19 19 19 17 17 17 17 16 16 15 15 15 13 12 11 11 10 9 9 9 9 9 8 8 7 7 6 6 6 6 6 5 5 5 5 5 5 4 4 4 4 5 5 6 6 7 7 7 7 6 6 6 6 6 6 7
7 5 3 3 1 3 2 1 3 1 5 10 12 12 8 10 12 11 10 9 11 11 11 12 10 10 14 19 25 27 26 25 24 22 22 21 20 20 20 19 19 19 19 19 18 16 16 16 16 15 15 15 15 14 13 11 11 11 10 9 9 9 9 9 8 8 7 7 6 6 6 6 6 6 5 5 5 4 4 4 4 5 6 6 6 6 6 6 7 7 6 6 6 6 6 6 6
9 7 4 3 1 1 1 1 3 2 5 11 12 12 9 10 13 12 10 10 12 11 12 15 13 15 18 23 26 26 26 25 24 23 22 22 20 19 19 19 20 19 19 19 19 18 16 16 16 15 15 15 14 13 13 11 11 11 10 10 9 9 9 9 9 8 8 7 7 7 7 7 6 6 5 4 4 4 4 5 5 5 6 6 5 5 6 6 7 7 7 6 6 6 5 6 6
7 7 6 2 0 2 1 2 4 4 5 10 13 12 10 10 12 12 10 9 10 11 14 17 16 19 22 26 27 26 26 25 25 23 23 23 21 20 18 18 18 19 19 18 18 19 17 16 17 16 15 16 14 13 13 12 11 11 10 9 9 9 9 9 9 8 8 7 7 7 7 7 6 6 5 4 4 5 5 5 5 5 6 6 5 4 5 6 6 6 7 6 6 6 6 7 8
6 7 9 6 3 4 1 3 5 6 7 11 13 12 11 12 12 12 12 8 6 10 14 14 16 21 25 28 28 26 26 25 25 24 24 23 22 20 18 18 18 18 19 19 19 19 19 18 17 17 15 16 15 14 13 12 12 11 10 9 9 9 9 9 8 8 8 8 7 7 6 6 6 6 6 6 6 6 6 5 4 5 6 6 6 5 5 6 6 6 7 6 6 7 8 10 12
8 8 10 10 8 7 4 4 7 9 10 12 13 12 12 13 12 13 15 7 3 7 12 13 16 21 26 29 28 27 26 26 25 24 24 23 23 21 20 19 19 18 18 18 18 18 20 19 18 17 16 16 15 14 13 12 12 11 10 10 10 9 9 9 8 8 8 8 8 7 7 6 6 6 6 7 6 6 6 5 5 5 5 5 6 5 5 7 7 7 7 7 8 9 11 12 13
9 8 8 10 9 9 8 6 9 12 13 13 13 13 15 14 10 12 15 9 4 5 11 14 18 22 25 27 28 28 27 27 26 25 24 23 23 22 20 20 19 19 18 17 17 17 20 21 20 18 16 16 16 15 14 13 12 12 11 11 11 10 10 10 9 9 9 8 8 8 7 7 6 6 7 6 6 6 6 6 5 5 5 6 7 7 7 7 8 8 8 9 10 11 12 12 11
12 10 8 9 9 10 10 9 10 14 13 13 15 14 15 14 9 11 14 11 5 6 13 16 19 23 25 26 27 27 27 26 25 24 23 22 22 21 20 19 19 19 19 18 17 16 18 21 21 20 18 17 16 16 14 13 13 13 12 11 11 11 11 10 10 10 9 9 9 9 8 8 7 6 6 6 6 6 6 7 6 6 7 6 7 7 8 9 10 9 10 11 12 12 12 11 11
9 12 10 8 10 9 9 11 13 15 13 15 16 13 14 14 9 9 13 11 8 9 15 18 20 23 24 25 25 26 26 25 24 23 22 20 21 22 20 19 20 19 19 19 18 17 18 20 22 22 20 18 17 17 15 14 14 14 13 12 12 12 12 11 11 10 9 9 9 10 9 9 8 6 6 6 7 7 7 7 7 7 7 8 8 7 8 10 10 11 12 13 13 13 12 10 11
3 8 9 8 11 10 9 11 14 15 14 17 16 12 14 15 9 7 12 14 10 13 17 18 20 22 23 23 24 24 24 25 24 23 22 21 21 22 22 21 20 20 20 20 19 18 17 18 20 22 21 19 18 18 17 16 15 15 14 13 13 13 13 12 12 11 10 10 11 11 10 10 10 8 8 7 7 7 7 7 8 8 8 10 10 8 8 10 11 13 14 14 13 13 11 10 10
6 7 8 9 10 9 9 10 15 15 13 18 15 10 12 13 9 7 14 17 13 14 17 19 20 20 22 23 23 23 23 24 24 23 23 23 23 23 23 23 22 20 21 21 20 19 18 18 19 20 21 20 20 19 18 18 16 16 15 14 15 14 13 12 12 11 11 11 12 12 10 11 11 11 11 9 8 8 8 8 8 9 9 11 11 10 11 12 14 15 15 14 12 10 9 9 11
9 9 8 7 7 6 8 10 16 14 11 17 13 7 9 12 12 9 16 20 16 15 17 18 19 20 21 22 22 22 22 23 22 23 24 24 23 23 24 23 23 21 21 22 21 21 19 19 19 20 19 19 21 21 19 19 18 17 17 16 16 15 14 13 13 12 12 12 13 13 12 13 13 13 13 11 10 9 10 11 10 9 11 12 13 14 15 15 15 14 13 12 10 9 9 11 12
9 10 9 6 6 6 9 10 15 13 10 17 14 5 8 12 15 13 17 21 18 16 17 18 18 19 21 22 22 22 22 23 23 23 23 23 22 22 23 22 23 21 20 21 22 22 20 19 20 21 20 19 20 20 18 19 19 18 17 16 16 16 15 15 14 14 14 13 13 13 14 14 14 14 13 13 12 11 12 12 12 12 13 15 16 16 15 14 13 12 10 9 9 10 11 12 12
8 8 7 7 6 5 10 11 15 13 10 19 14 6 5 8 14 17 19 22 21 18 18 19 19 19 21 22 22 22 23 23 23 23 22 23 22 22 22 22 22 22 19 19 22 24 22 21 21 22 23 21 19 19 17 18 18 18 17 17 17 16 16 16 14 14 14 14 14 14 15 15 14 14 14 14 14 12 11 11 13 14 15 16 16 16 14 11 10 9 8 8 10 10 10 10 9
8 8 7 8 6 5 10 10 15 12 10 18 14 7 4 5 13 19 19 21 21 18 18 19 20 21 21 22 22 21 22 23 23 24 23 23 23 22 22 22 22 22 21 20 22 25 24 24 24 23 23 23 22 21 19 17 17 18 17 17 17 16 16 16 15 14 13 13 13 13 15 15 14 14 15 15 15 12 10 11 14 15 15 15 14 14 12 9 8 7 8 10 10 9 8 7 7
8 8 8 9 8 7 9 10 15 12 10 16 15 8 5 4 12 19 18 20 20 18 18 20 20 21 22 22 22 21 21 23 24 25 24 24 24 22 22 22 22 22 23 23 23 25 25 25 25 23 23 23 23 22 21 19 17 17 17 17 16 16 15 15 15 15 14 14 13 12 14 15 14 15 15 15 15 14 13 12 13 15 15 13 12 10 8 7 7 8 10 10 8 7 6 5 6
8 9 9 8 10 8 8 9 13 13 11 14 16 12 6 5 11 17 18 20 20 18 18 20 20 20 21 22 22 22 22 23 25 26 26 25 24 23 22 22 22 22 23 24 24 24 24 25 24 23 23 23 22 22 21 20 19 18 17 17 16 15 15 15 15 15 15 15 15 15 15 15 14 14 15 16 16 15 14 13 12 13 12 9 8 7 7 8 9 9 9 7 6 6 5 5 6
10 10 8 8 9 9 9 9 12 15 13 13 15 14 11 6 9 13 16 18 18 18 18 19 21 21 21 21 22 22 23 24 25 26 26 25 24 23 22 22 22 23 23 24 24 23 23 25 24 23 24 23 23 22 20 20 20 19 18 18 17 16 16 16 16 15 16 15 16 17 16 15 15 15 16 16 15 14 14 13 11 9 7 6 7 7 7 9 10 9 7 6 6 6 6 6 6
12 12 10 10 9 9 11 9 11 16 13 13 14 14 14 11 9 11 14 16 16 16 16 17 19 21 21 21 22 23 24 24 24 25 26 26 25 24 24 23 23 23 23 24 24 24 23 24 24 23 23 24 23 22 20 21 21 21 20 19 18 18 18 17 16 16 16 16 17 18 16 14 16 16 15 15 15 14 12 10 7 6 6 7 8 8 8 8 8 8 7 7 7 6 6 6 5
12 12 11 13 11 9 12 10 11 16 13 12 15 14 14 14 10 10 13 15 15 15 16 17 19 20 22 22 22 22 24 24 23 24 25 26 25 25 24 24 24 23 24 25 26 25 24 24 25 24 23 23 23 22 21 22 22 22 21 21 20 20 19 17 17 16 16 16 17 17 16 15 16 17 14 14 14 11 8 7 6 7 8 9 8 7 7 8 8 8 8 8 7 5 4 5 6
13 12 11 11 12 9 10 9 10 14 12 10 13 15 14 14 11 9 12 14 15 16 18 18 20 20 21 22 23 23 22 20 21 23 25 26 26 25 25 25 25 25 26 27 27 26 25 25 25 24 23 23 24 23 22 23 23 22 22 21 20 19 18 17 16 16 16 16 16 16 16 15 16 15 14 12 10 8 7 7 7 9 9 8 8 7 9 10 10 10 8 7 6 5 4 4 6
12 11 10 10 10 8 7 8 10 12 10 8 11 13 13 13 12 10 13 14 15 17 19 19 20 21 21 23 24 24 22 20 22 24 26 27 27 27 26 26 27 27 27 28 28 27 26 26 26 25 24 23 23 24 24 23 23 22 22 21 20 18 15 15 15 15 16 15 16 16 16 16 15 14 13 11 9 8 8 8 8 9 8 7 7 7 9 9 8 7 7 5 4 4 4 4 6
12 11 10 9 10 9 7 10 12 11 9 9 10 10 10 11 13 13 15 17 16 17 19 19 20 22 23 24 24 25 25 23 24 25 26 28 29 29 28 28 28 27 27 27 29 29 28 28 27 26 25 24 23 24 25 24 23 23 22 20 19 17 15 15 16 16 16 15 15 16 15 15 14 13 12 10 9 9 9 8 9 8 7 7 7 9 8 5 4 4 6 5 3 2 2 4 6
14 15 12 11 11 11 10 10 11 11 10 9 9 8 8 11 14 14 14 17 17 18 19 20 21 22 22 23 24 25 26 26 26 26 27 28 30 31 31 31 29 28 28 28 29 31 31 30 29 27 26 25 23 23 24 24 24 22 20 20 19 17 16 16 16 15 14 14 14 14 14 13 12 12 11 10 10 10 9 8 9 8 7 8 9 10 7 3 3 4 5 6 3 1 1 3 4
14 16 16 15 12 11 12 11 11 8 8 9 9 8 8 10 14 14 12 13 16 18 19 21 23 23 23 24 24 25 26 26 27 27 27 28 30 31 31 32 32 31 31 31 31 32 33 32 30 28 27 25 24 23 23 23 23 22 20 19 19 18 17 17 17 15 14 14 13 12 12 11 12 11 10 10 10 10 9 9 8 8 8 9 11 11 5 4 4 5 6 6 3 2 1 1 2
11 14 18 17 12 10 11 12 11 8 8 9 11 9 8 8 12 13 13 13 15 17 18 21 24 25 25 26 26 26 26 26 27 28 28 29 30 31 31 33 34 34 34 34 33 33 34 33 31 30 28 27 25 24 23 23 23 22 21 20 19 18 18 18 18 16 15 13 12 12 11 11 12 11 10 10 10 10 9 8 8 8 10 10 11 9 4 4 4 5 6 4 2 2 1 1 2
11 12 17 18 14 12 12 13 11 10 9 8 10 11 9 8 8 8 11 14 15 16 17 19 23 26 28 28 28 28 28 28 27 27 28 29 30 31 32 34 37 37 35 35 34 35 35 34 32 31 30 29 27 26 25 25 24 23 22 21 20 19 19 18 17 15 14 14 14 13 13 12 12 11 11 11 10 10 10 9 9 11 13 12 11 6 5 5 6 6 5 5 3 3 3 2 3
13 11 13 16 16 14 13 11 10 11 11 8 10 12 10 8 7 5 9 13 13 16 18 18 22 27 29 29 30 30 29 28 28 28 28 29 30 31 32 34 37 37 34 34 36 36 36 35 34 33 32 31 30 28 27 26 25 25 23 22 21 21 20 18 16 15 15 15 15 14 14 13 13 13 12 12 11 10 10 10 11 13 14 13 10 5 6 6 6 5 5 4 3 3 4 4 4
12 8 10 14 14 13 12 11 9 11 12 10 11 13 9 9 8 7 9 11 12 14 15 16 22 27 29 30 31 30 29 29 28 29 28 29 30 30 31 33 35 36 34 35 37 38 37 35 34 34 33 33 32 31 29 28 27 27 25 24 23 22 20 18 17 17 17 17 17 16 15 14 15 14 13 12 12 11 11 10 10 13 12 11 8 7 7 7 6 6 6 5 5 5 5 5 4
11 7 9 11 11 11 10 9 9 11 11 11 14 14 10 10 9 8 9 10 12 11 10 13 18 25 28 29 30 30 30 30 29 29 29 29 30 30 31 31 32 34 35 37 38 38 37 36 35 35 34 33 33 32 31 30 29 29 27 26 25 24 22 19 20 21 20 18 16 15 15 15 16 14 12 13 13 13 12 9 9 11 10 10 9 8 7 5 4 6 7 6 6 6 5 5 4
12 8 10 9 7 7 8 7 8 10 9 12 17 17 14 11 10 8 9 11 12 10 10 11 15 22 27 27 27 29 30 30 29 29 28 28 30 31 31 31 33 35 36 38 38 37 37 36 35 35 34 33 33 33 32 31 31 30 29 28 26 25 24 23 23 23 21 18 16 14 14 15 15 12 11 13 13 12 11 9 10 11 9 9 9 7 7 6 5 6 7 7 6 6 6 5 5
13 10 11 10 8 7 8 9 9 9 10 12 16 17 14 11 12 11 10 11 12 11 12 13 12 16 20 24 26 26 28 29 28 29 29 29 30 32 33 34 36 37 37 38 38 37 37 36 36 35 34 33 33 33 32 32 32 32 30 29 28 27 26 26 26 24 21 19 17 16 15 14 12 10 11 12 11 11 11 9 10 10 9 10 9 9 9 8 8 7 7 7 6 6 6 6 5
13 12 11 11 10 10 11 11 9 9 12 13 13 12 11 10 11 14 15 15 15 16 17 16 13 12 14 20 24 25 27 29 29 30 31 32 32 32 35 37 39 40 40 39 38 38 38 37 36 36 34 33 33 33 33 32 33 32 31 30 29 29 28 28 27 23 21 20 19 18 16 14 13 12 13 13 12 12 12 11 10 8 9 11 11 11 10 9 9 8 7 7 6 6 6 5 5
14 14 13 12 11 11 10 9 10 10 10 13 14 10 10 10 7 8 12 14 16 17 17 15 13 12 12 16 21 23 26 28 29 31 33 36 37 36 38 40 40 41 41 40 39 39 39 38 38 37 35 34 34 33 33 33 33 32 32 31 30 30 29 28 26 24 23 22 21 19 18 17 16 14 14 15 14 14 14 12 9 8 10 12 13 13 11 9 8 7 6 6 5 5 5 5 5
12 13 13 13 12 11 9 10 12 12 10 12 12 8 9 9 5 5 7 9 13 15 15 14 14 14 14 15 19 23 25 27 29 30 33 37 40 41 41 41 41 41 41 40 40 39 39 39 38 38 36 35 35 35 34 34 33 33 33 32 32 31 30 29 27 26 25 24 22 20 19 19 17 16 17 16 15 15 14 12 9 8 9 12 13 12 9 7 6 6 6 5 5 5 5 5 5
9 13 14 13 13 13 12 12 11 11 12 11 9 8 9 9 8 11 13 13 14 15 14 14 15 14 16 17 19 22 24 27 29 30 32 35 40 42 43 42 41 41 40 40 40 39 39 39 38 38 37 36 36 36 36 35 34 34 34 33 33 32 32 31 29 28 28 26 23 22 21 20 18 18 18 16 16 15 13 11 9 8 9 11 12 11 9 7 7 7 6 6 5 6 6 5 5
8 10 14 12 11 12 12 11 9 11 12 10 11 13 12 10 9 11 15 17 17 16 16 15 13 14 17 19 20 22 24 26 28 30 31 33 38 42 44 43 42 41 40 40 39 37 37 37 37 37 37 38 38 38 37 36 35 35 35 34 34 33 33 32 31 31 29 27 26 24 23 21 20 19 18 16 16 15 13 11 9 8 9 11 12 12 10 9 8 8 7 7 7 6 6 6 6
16 9 11 11 10 10 10 10 10 13 12 10 14 17 13 11 9 8 11 13 14 15 15 13 10 12 17 18 18 21 23 24 26 28 29 31 34 39 43 44 43 41 40 39 38 37 37 37 37 37 36 37 38 38 38 37 37 36 36 35 35 34 34 33 32 32 31 29 27 26 24 23 21 20 18 17 17 16 13 10 8 8 9 11 13 13 12 10 10 9 8 8 7 7 6 6 6
19 13 10 11 11 10 10 10 9 11 12 11 14 15 11 10 11 12 12 10 10 10 11 10 10 12 16 16 17 20 23 25 27 28 30 32 34 36 40 43 43 43 42 39 38 37 37 36 36 36 36 36 37 38 38 38 38 37 37 36 36 35 35 34 34 33 32 30 29 28 26 24 22 21 19 18 18 17 13 9 8 8 8 10 14 14 13 12 12 11 10 9 8 8 7 7 7
15 13 12 11 10 9 10 11 10 11 11 10 12 13 10 8 10 14 15 12 11 12 12 11 12 15 16 15 16 19 23 25 26 27 29 31 32 32 34 37 40 42 42 40 39 38 37 37 36 36 36 36 37 38 39 39 38 38 38 37 37 36 35 35 35 34 33 32 31 29 27 26 25 23 21 19 19 17 14 12 11 9 9 12 15 16 14 14 15 14 12 11 9 9 9 8 8
14 12 13 13 11 10 11 12 12 12 12 11 12 12 10 7 8 11 15 15 13 14 14 13 16 19 16 13 14 17 21 23 24 25 26 26 29 30 30 31 34 38 40 41 39 38 38 39 38 36 36 37 37 37 38 39 39 39 39 38 38 37 36 36 36 35 35 34 31 31 30 28 26 24 22 20 20 19 17 15 14 12 11 13 16 17 16 16 17 16 15 13 11 10 10 9 10
Wind_Direction
188 175 149 95 159 221 235 236 247 191 175 75 78 94 81 83 111 115 113 122 116 97 91 110 107 79 76 93 104 91 48 27 35 32 99 113 126 122 125 134 140 139 140 145 142 138 134 139 143 138 138 142 143 141 140 138 134 135 135 135 138 141 145 146 147 147 148 149 147 145 142 140 138 135 130 124 118 112 105 100 94 86 80 77 74 71 66 59 53 48 43 38 40 41 39 38 37
173 155 160 45 184 237 262 227 243 107 110 82 73 76 94 112 119 110 111 110 96 106 113 110 100 76 87 101 108 99 51 39 66 92 105 121 125 119 125 132 136 137 139 140 138 139 136 138 144 140 138 142 144 141 138 136 133 133 132 132 135 141 147 148 148 149 149 149 148 146 144 143 142 137 130 123 118 113 108 102 95 87 80 78 75 70 63 54 47 41 37 34 36 36 34 32 31
164 141 149 328 217 242 268 236 274 67 83 78 80 79 106 114 104 100 98 95 101 121 123 117 101 73 113 117 91 78 75 76 94 106 115 126 126 124 130 134 136 137 139 139 139 144 141 141 145 144 141 144 144 139 138 138 133 131 133 131 134 142 146 145 148 150 150 149 148 147 146 145 142 136 128 123 120 115 109 105 99 90 83 79 72 66 60 50 41 35 32 31 31 31 31 28 28
161 157 165 256 248 240 261 232 15 47 78 77 87 85 95 97 97 96 95 106 118 130 129 126 99 50 84 105 80 86 99 101 105 112 122 128 130 133 136 138 138 136 139 141 143 146 143 140 143 145 146 146 143 141 141 140 134 133 135 131 135 142 139 140 146 147 147 146 145 143 143 142 139 134 129 126 122 118 113 107 100 90 84 77 69 63 54 45 36 29 28 27 26 25 26 25 24
160 180 179 250 274 288 301 62 44 49 61 57 89 93 93 100 107 108 108 119 131 134 134 135 102 89 77 63 50 101 107 114 115 114 121 128 131 135 138 139 137 135 141 144 144 144 143 140 140 143 147 146 144 145 143 142 141 141 138 133 135 136 133 138 143 144 144 142 140 140 141 141 138 136 132 130 127 123 119 109 97 90 86 78 69 60 49 40 31 26 27 24 21 19 20 18 16
166 205 212 255 278 306 290 77 61 68 49 18 82 99 103 113 119 120 122 124 128 128 132 126 110 123 94 63 69 94 113 125 123 119 121 129 133 134 136 136 135 136 144 147 142 142 143 141 141 144 148 148 148 150 149 145 144 143 137 132 131 130 134 141 142 143 143 143 143 144 144 144 142 140 137 134 131 129 121 106 95 91 87 79 67 57 44 32 28 26 27 20 17 16 16 13 8
181 211 225 254 250 250 303 69 53 66 53 15 70 99 109 122 130 132 134 132 131 131 132 116 122 123 105 101 93 83 105 122 125 127 130 135 136 136 135 134 135 138 145 145 140 143 144 141 142 142 145 149 150 152 150 143 141 142 135 131 131 132 138 140 142 143 144 146 146 147 145 144 143 142 141 139 137 130 118 108 102 100 90 77 62 50 35 25 24 22 20 13 12 13 13 10 5
202 232 252 272 225 201 48 69 58 58 65 48 64 85 106 128 142 145 145 143 143 143 139 137 140 113 105 123 105 95 108 118 129 131 135 137 137 141 137 135 138 139 143 143 141 145 146 141 141 139 141 144 147 149 147 141 141 140 134 135 137 137 139 138 140 142 142 145 146 147 145 145 145 147 147 145 141 131 122 117 115 112 97 74 53 38 27 19 16 10 7 5 5 7 6 4 6
213 245 256 275 267 106 73 77 81 71 75 78 74 86 111 135 151 153 147 139 143 146 140 149 163 115 120 119 107 118 119 121 132 133 136 137 139 144 141 140 139 139 141 141 142 144 145 143 140 139 141 143 146 149 145 142 140 138 136 139 141 140 140 139 140 140 142 145 147 149 149 150 150 153 154 152 149 143 136 127 125 120 109 86 46 30 27 15 6 359 356 358 359 2 2 2 3
212 240 268 276 292 72 80 77 85 82 79 83 87 108 126 139 154 156 149 137 141 142 132 145 147 120 126 117 110 126 128 130 137 135 136 138 140 142 144 145 141 139 139 140 141 143 144 144 141 141 143 146 149 148 144 142 140 141 141 143 144 143 143 141 141 141 143 145 148 150 151 154 154 158 160 160 159 152 144 140 138 130 125 98 34 24 20 3 355 349 351 355 355 359 360 3 2
227 225 275 282 40 62 63 72 86 87 92 95 96 117 133 141 151 153 146 138 143 138 136 154 136 125 126 118 110 120 133 138 139 137 140 141 139 139 143 144 141 139 139 140 142 144 145 145 144 145 146 147 147 144 143 145 146 147 146 148 146 144 143 141 142 142 144 146 147 149 150 153 154 159 162 162 159 154 154 154 155 159 171 42 21 6 356 346 347 346 351 353 353 358 358 2 7
254 197 261 295 46 60 57 68 86 89 107 111 110 126 140 147 153 149 146 141 145 142 148 165 141 136 131 123 124 133 142 144 144 143 142 142 141 141 141 142 142 141 141 142 144 145 146 146 146 148 148 146 145 144 147 151 152 152 149 149 147 145 143 143 144 144 146 147 147 148 149 150 153 158 161 161 161 162 164 167 175 183 231 2 355 338 336 336 345 345 346 349 354 0 358 360 6
256 339 288 329 14 64 68 65 87 103 118 108 117 132 143 155 158 149 150 148 150 147 148 153 147 148 128 121 137 148 150 150 150 147 143 143 143 142 141 144 144 144 144 143 147 148 148 148 148 148 147 148 148 149 152 153 153 153 151 150 148 148 148 147 147 148 149 149 149 150 150 152 156 160 163 166 169 172 174 182 189 188 228 296 320 322 324 329 337 339 339 344 353 359 360 358 359
253 320 311 329 337 73 77 83 99 104 100 103 123 136 151 155 151 152 153 150 146 134 133 146 155 153 130 127 145 157 157 154 153 149 147 146 144 143 142 146 147 147 145 146 151 151 151 151 149 150 150 151 150 150 154 154 155 154 153 152 152 152 153 153 153 155 156 155 155 156 157 160 163 170 174 178 181 181 186 194 198 213 242 283 305 309 313 318 324 327 330 334 341 350 358 355 348
257 302 288 290 347 104 99 86 92 85 94 121 137 142 149 133 145 161 166 151 126 125 130 147 166 160 151 154 160 162 159 155 154 151 150 147 147 147 146 149 151 151 149 151 155 153 154 154 152 153 154 153 150 152 156 157 158 156 156 155 156 159 160 162 162 163 165 164 166 167 168 169 173 179 183 187 192 189 191 200 213 236 256 288 297 302 306 308 312 313 316 321 326 332 341 340 336
254 285 275 271 349 99 138 106 93 88 104 134 144 152 149 129 158 157 149 133 122 143 149 157 172 167 160 163 157 158 157 155 155 152 151 150 150 151 151 154 156 156 155 156 158 156 157 156 157 157 156 154 153 157 158 161 162 158 158 160 162 164 166 169 169 171 173 174 176 175 170 168 175 185 191 195 204 204 203 214 232 254 272 293 299 303 304 304 305 304 304 307 310 313 319 322 325
244 261 265 260 348 64 120 144 88 65 109 141 151 164 155 136 160 147 132 143 138 156 159 153 163 155 154 151 148 153 154 155 156 153 153 154 153 154 154 158 161 162 162 162 162 161 162 161 161 161 160 159 159 161 160 165 167 160 160 165 167 170 173 174 174 176 177 181 182 176 170 170 180 190 197 206 216 219 223 236 251 272 285 296 300 303 306 305 300 296 293 293 294 298 309 316 324
225 241 254 271 32 61 81 126 86 69 122 149 160 170 165 148 160 156 158 164 150 155 153 150 146 132 140 139 144 150 152 156 159 157 157 158 158 158 159 163 166 168 169 168 167 166 167 167 166 166 166 165 166 165 163 169 169 163 166 172 172 175 177 176 178 181 182 187 188 184 182 183 190 196 202 211 219 228 239 251 262 276 285 290 296 302 305 303 298 296 291 288 288 298 310 318 327
223 246 250 261 359 47 24 95 127 109 129 148 165 174 172 156 159 165 174 168 160 161 156 156 146 133 138 141 146 151 154 159 163 164 163 163 164 163 164 167 168 170 173 175 175 174 172 172 171 172 173 172 171 170 168 171 171 168 172 178 178 181 182 182 184 185 188 192 190 191 193 194 196 200 206 212 221 232 247 257 265 277 284 290 296 303 307 306 305 300 296 294 294 306 317 320 331
227 245 252 235 285 353 357 221 192 173 136 154 166 172 173 160 159 173 183 169 173 179 165 167 163 149 148 149 151 154 158 163 166 169 169 169 171 170 169 170 172 174 175 177 181 180 178 178 177 177 179 178 175 176 175 174 175 176 177 181 183 186 187 187 188 188 191 193 188 191 197 201 205 209 211 215 232 245 255 265 278 288 290 294 301 312 316 313 316 310 303 306 306 312 317 314 323
224 230 258 260 85 293 193 204 217 184 162 165 163 168 172 162 166 180 184 173 183 192 179 178 172 159 156 155 156 159 162 167 170 173 174 174 175 176 175 175 177 178 176 177 183 185 184 183 183 182 183 183 181 181 182 181 181 183 183 185 186 188 189 190 191 192 195 196 191 194 203 206 211 220 227 232 245 252 257 268 285 292 291 297 306 319 313 306 317 312 305 312 313 310 305 301 306
241 227 252 266 266 286 231 207 214 187 178 172 166 171 166 163 176 184 186 186 185 187 184 182 172 163 161 160 160 164 166 170 174 176 177 177 178 178 178 178 180 181 180 181 185 187 187 186 185 187 187 186 186 185 187 189 188 188 190 190 190 190 191 192 194 196 200 202 199 202 209 215 218 226 241 246 252 256 259 270 280 280 287 300 304 311 300 296 304 298 300 305 301 301 299 298 300
246 234 235 246 247 260 262 229 204 186 188 183 174 169 161 169 183 186 192 192 120 170 179 172 168 165 163 162 163 167 171 174 176 179 180 180 180 180 180 180 182 184 184 187 188 188 189 190 188 188 191 190 191 190 191 194 193 193 195 195 194 196 197 197 199 202 207 207 208 210 210 221 228 235 249 254 258 260 263 268 271 283 295 300 295 296 296 296 297 294 298 298 297 300 299 301 302
240 254 234 237 238 241 254 246 205 194 197 188 176 169 170 180 180 180 194 185 106 149 169 163 162 164 165 165 168 172 175 177 179 181 182 183 183 182 182 182 183 184 186 190 191 191 190 193 192 190 192 193 194 194 195 196 197 197 199 201 200 201 202 203 206 206 212 214 217 219 214 223 231 240 252 260 266 264 268 267 272 289 290 291 291 295 296 291 294 298 298 297 301 302 301 304 301
233 253 251 245 240 240 251 249 214 200 200 187 179 179 178 181 170 173 192 183 146 152 159 160 160 163 169 171 172 174 177 180 181 183 184 185 185 183 183 183 184 185 188 189 190 193 194 195 196 196 194 194 196 197 198 199 199 201 202 204 204 207 205 207 213 212 216 222 226 230 227 229 231 241 254 261 266 265 270 274 282 285 283 288 290 295 294 291 297 298 296 299 301 302 302 302 299
224 240 251 250 247 254 258 246 216 199 195 183 182 187 181 175 165 173 186 175 155 156 159 162 164 167 173 175 176 176 178 181 182 184 185 186 187 187 187 186 186 188 189 188 189 194 198 199 199 200 200 197 198 200 201 202 202 204 205 207 208 211 210 211 217 216 221 227 233 236 236 236 236 243 254 259 264 268 272 278 280 279 287 289 282 289 293 292 297 295 297 301 300 300 300 302 307
238 243 256 260 265 271 263 241 208 197 188 181 187 191 177 170 174 184 174 168 158 158 164 166 169 173 177 178 179 179 180 183 184 185 186 187 189 191 191 191 191 191 191 190 191 195 198 200 200 202 204 201 201 202 203 204 205 206 208 209 211 215 215 216 219 219 223 227 233 240 241 244 245 247 251 256 264 270 275 278 276 279 286 281 281 293 292 291 295 297 301 303 302 304 307 310 316
253 254 260 252 265 264 244 223 192 188 182 185 194 185 169 171 196 202 163 164 164 162 166 171 175 177 180 181 180 182 184 185 186 186 188 189 191 193 194 195 196 195 197 198 197 199 200 200 202 204 205 204 204 205 206 207 207 209 211 212 214 217 218 219 222 224 226 229 236 240 244 248 250 253 255 257 262 266 270 272 274 280 280 274 280 289 289 293 297 299 304 306 309 314 317 316 318
246 246 255 233 244 241 212 195 180 181 177 181 183 171 181 191 206 195 160 163 165 165 170 173 179 181 181 183 182 185 188 188 188 190 192 193 194 195 197 198 198 197 201 204 203 205 205 204 206 206 206 206 207 208 209 210 211 212 213 215 218 219 221 223 225 229 232 235 240 242 244 249 251 254 256 259 261 263 266 271 275 278 277 279 283 284 287 294 297 301 307 311 315 317 317 316 317
237 233 250 233 233 216 183 178 176 180 171 169 173 186 205 204 203 184 162 167 169 170 176 177 181 183 183 185 186 188 190 190 191 194 195 195 196 197 198 199 199 198 200 204 207 208 205 206 209 210 211 209 208 209 209 213 216 218 217 219 222 223 226 229 230 234 237 239 244 246 247 249 252 253 257 261 262 265 272 277 279 279 280 284 284 283 288 294 297 301 307 309 312 317 318 315 315
227 224 236 236 242 186 165 178 177 175 163 169 184 224 208 187 188 178 166 170 174 177 180 180 182 184 186 187 189 191 192 193 195 197 198 197 198 198 199 200 200 200 199 203 209 210 207 207 210 212 215 214 214 212 210 213 217 220 221 222 226 226 228 233 234 237 242 243 245 249 250 249 251 254 257 263 265 269 276 279 282 283 284 285 282 284 291 292 293 299 303 306 312 316 317 317 317
218 222 220 221 233 170 159 184 188 175 159 176 197 231 212 168 168 172 173 175 177 184 183 184 185 184 187 189 192 194 193 195 198 200 200 199 200 200 200 200 200 201 202 204 210 212 211 212 213 213 216 217 218 219 217 217 218 221 224 225 228 230 231 236 237 238 241 245 244 246 250 247 248 253 256 261 266 270 272 276 281 283 283 283 281 284 291 290 289 298 301 306 312 311 315 322 320
208 220 228 213 209 188 165 186 197 180 156 181 204 225 212 159 162 171 177 179 181 187 187 187 189 187 187 190 194 196 194 196 200 202 202 201 202 201 201 201 201 203 206 210 213 214 213 215 217 215 217 218 219 222 222 224 223 224 227 228 230 232 233 237 241 242 240 242 242 241 247 249 250 255 259 264 269 271 273 276 280 282 283 284 282 284 289 288 291 300 303 307 313 314 321 324 315
202 212 234 225 217 213 178 174 193 187 170 187 206 225 220 138 159 176 181 184 186 191 191 190 192 191 190 191 194 196 196 197 201 203 202 202 203 202 203 203 203 206 210 214 216 216 214 216 219 217 219 221 220 221 223 227 228 228 230 231 232 235 237 237 239 243 241 241 243 244 248 253 254 259 266 271 271 272 275 277 278 282 285 282 280 286 290 292 300 307 311 313 310 313 322 317 312
208 207 221 228 227 231 204 174 184 190 190 197 203 219 226 180 161 179 184 186 193 197 196 194 194 194 193 194 196 197 199 202 203 203 201 202 203 203 205 205 206 207 210 215 216 216 215 217 220 219 219 222 223 223 223 227 230 232 233 233 235 236 238 238 238 240 241 241 245 249 251 254 259 263 266 268 266 270 278 282 282 281 282 280 284 291 293 300 308 312 316 312 303 307 314 313 316
218 214 219 228 224 224 217 193 181 189 198 209 208 218 226 213 184 179 184 187 196 202 200 199 198 197 197 197 200 199 201 204 203 202 201 202 203 204 205 206 207 208 210 215 216 215 215 217 220 221 221 222 225 225 224 226 230 232 234 234 234 236 238 240 240 241 243 243 246 251 254 256 261 264 266 268 265 268 280 285 282 277 283 290 292 295 294 298 301 304 306 302 296 299 307 311 314
224 222 224 233 236 221 209 198 187 192 202 214 215 224 229 226 213 190 187 187 193 203 204 205 203 201 202 201 202 202 203 204 201 199 200 202 204 204 205 205 206 207 210 215 217 215 215 217 220 222 221 222 224 224 223 225 227 229 232 232 233 236 239 241 241 242 243 244 248 252 254 257 260 262 267 271 267 267 276 275 272 286 299 302 298 293 286 283 285 290 293 291 288 293 305 305 309
224 229 228 231 240 227 190 183 190 196 211 220 216 228 234 233 229 200 193 196 195 201 206 209 208 206 207 206 206 205 205 204 198 196 198 200 203 204 204 205 205 207 210 215 217 216 216 217 220 222 220 221 223 223 223 225 227 228 231 233 235 237 240 242 242 244 244 244 248 251 252 256 260 262 267 271 269 269 272 271 284 300 306 302 296 289 282 281 281 279 279 281 283 297 312 300 317
224 231 235 231 233 223 177 180 198 198 214 229 218 230 239 235 234 219 207 209 206 204 209 212 211 210 210 209 208 207 204 201 197 196 197 199 202 203 203 205 206 208 211 215 217 216 216 216 219 220 219 220 221 222 223 225 228 230 232 235 238 236 237 242 240 239 244 246 250 252 251 253 257 262 269 273 271 272 272 278 297 304 299 290 289 294 293 288 279 264 261 264 273 301 317 307 326
225 227 231 234 226 215 191 193 201 201 215 240 234 235 246 242 239 233 221 219 215 210 213 216 215 214 214 212 210 208 205 200 198 198 198 199 200 201 203 205 206 207 209 213 216 216 215 215 216 216 217 218 220 222 223 226 229 232 233 234 237 236 232 237 238 237 242 246 249 251 249 252 257 261 265 267 266 269 271 281 297 295 286 283 288 300 300 288 270 249 256 269 275 300 307 301 321
222 225 227 235 227 215 212 199 195 207 216 232 245 245 249 242 237 235 225 222 220 214 214 217 216 216 217 217 214 211 208 203 200 201 201 200 200 201 204 206 207 207 208 211 214 215 214 215 215 215 216 218 219 222 222 224 226 229 230 230 233 235 231 233 237 238 241 244 247 249 249 251 256 255 256 259 260 263 266 278 288 283 282 283 290 302 295 251 253 249 263 284 289 266 252 294 319
218 220 224 236 235 222 221 201 188 213 220 212 223 244 253 239 235 236 227 220 218 213 211 213 212 212 214 217 216 213 211 207 203 203 203 203 203 203 204 207 208 209 210 212 213 214 215 216 215 214 216 218 219 221 220 220 223 224 224 225 226 229 230 231 234 236 238 242 244 245 246 247 248 248 250 250 249 252 261 274 275 272 280 282 291 298 274 230 253 252 265 286 284 256 252 352 312
222 213 216 229 237 228 220 202 195 219 230 208 206 231 258 243 230 229 225 223 218 212 212 213 209 208 210 213 214 213 211 209 207 205 205 204 204 204 205 207 209 210 212 213 214 216 217 217 217 216 216 218 220 220 219 219 221 222 222 224 225 227 230 233 236 238 238 240 239 237 238 240 240 241 241 238 238 243 253 260 257 268 282 283 289 288 240 217 241 241 258 270 251 262 332 23 284
227 210 206 214 222 224 218 210 213 227 230 209 200 223 253 252 236 224 220 223 218 213 216 215 212 209 209 210 211 211 210 209 207 205 205 204 204 204 204 207 211 211 212 213 215 218 219 218 218 218 218 220 221 221 221 221 222 223 223 224 226 228 231 235 240 239 234 233 233 230 231 234 234 233 232 231 233 236 245 250 255 275 286 284 282 266 210 213 229 235 259 276 288 300 316 313 285
232 218 201 204 214 222 222 221 226 232 231 220 207 220 247 254 237 214 215 220 219 220 220 217 215 213 211 210 210 210 210 209 208 207 206 205 204 204 205 209 213 212 210 213 216 219 220 219 219 220 220 222 224 224 224 225 225 225 225 225 226 229 231 235 238 235 230 229 228 227 227 230 231 229 228 230 232 235 243 247 259 276 282 279 273 234 206 223 232 239 254 270 288 288 290 295 292
229 218 198 203 213 220 225 228 232 233 231 232 218 209 230 257 238 210 211 219 225 229 225 218 216 215 213 211 210 208 207 207 209 209 207 205 204 204 207 211 215 214 211 214 218 219 221 220 220 222 222 223 225 226 226 227 228 228 227 227 227 229 232 232 233 232 230 228 226 226 227 229 234 232 228 230 232 236 238 235 252 270 270 262 247 209 214 234 239 246 244 242 251 255 271 286 290
218 207 202 207 210 217 227 229 238 240 228 235 236 214 214 251 249 219 208 219 234 238 233 227 219 216 214 212 209 207 204 204 206 208 208 206 205 206 209 211 215 216 215 216 220 220 221 221 221 222 222 223 225 227 228 228 229 230 229 229 229 230 232 231 231 231 230 228 226 226 226 230 235 234 230 230 230 233 233 227 244 257 249 239 230 210 214 226 234 249 247 243 251 256 265 274 279
217 210 208 206 197 207 222 219 229 242 228 230 238 224 214 237 251 236 215 221 236 244 245 243 227 217 213 210 208 206 204 202 201 203 205 204 204 205 206 209 215 219 218 219 221 221 221 222 222 222 223 224 225 227 228 229 230 231 230 230 231 232 232 232 233 233 233 233 233 231 229 230 233 232 229 229 227 227 226 232 245 245 232 227 223 208 208 208 213 236 243 244 251 255 257 263 269
216 215 211 205 197 198 212 214 214 231 233 232 236 227 218 232 247 248 241 231 235 245 254 257 248 228 214 206 205 205 203 202 199 200 202 202 202 203 204 208 216 221 221 220 221 222 222 222 222 223 223 223 225 227 228 229 230 231 230 230 231 233 234 234 236 235 236 238 238 235 230 229 229 227 226 222 216 215 222 240 251 241 227 221 212 206 212 216 218 228 239 243 247 254 259 260 259
207 210 208 206 207 207 210 215 216 224 230 230 229 227 228 236 241 244 247 247 248 256 260 260 257 244 224 207 203 202 202 201 199 198 201 203 203 203 208 213 218 221 222 222 222 222 223 223 223 223 223 223 224 226 227 228 229 230 230 230 231 233 235 236 237 236 237 237 237 237 233 232 233 231 231 228 221 222 231 244 246 232 222 217 211 210 214 219 223 227 234 238 244 254 257 258 255
206 212 214 215 216 217 215 214 219 224 228 221 213 214 231 238 238 235 239 245 253 262 265 260 250 237 223 210 205 203 201 200 199 199 203 209 212 212 216 219 220 222 223 223 223 223 224 225 224 223 222 222 223 225 226 227 228 229 229 230 231 233 236 238 238 236 237 237 236 239 240 239 239 237 238 239 237 238 240 241 237 225 219 215 212 212 212 219 226 228 236 239 241 248 255 260 262
205 211 219 220 218 224 230 230 232 231 231 224 209 207 234 242 240 226 233 247 254 260 261 254 243 227 211 206 206 205 203 200 200 200 203 210 216 219 221 222 222 223 223 223 223 223 223 224 225 224 222 221 222 223 224 226 228 229 229 229 231 233 235 237 237 236 237 237 237 241 243 243 242 239 239 240 240 240 237 235 232 226 219 214 212 211 210 219 230 234 243 243 237 245 258 265 265
194 205 219 222 222 229 234 234 238 236 233 229 212 211 230 239 239 235 239 250 251 253 254 247 240 222 206 206 206 205 204 200 201 202 203 207 214 220 222 222 223 224 223 223 223 222 222 224 225 224 222 222 223 223 224 226 228 229 230 230 231 233 235 237 237 237 238 239 241 242 243 243 240 236 236 236 234 234 232 231 228 224 220 215 214 213 211 217 229 237 244 245 238 241 253 264 264
207 206 212 213 226 239 239 230 222 223 231 234 226 225 226 227 234 233 235 241 240 242 248 249 240 215 208 212 208 204 203 201 202 204 205 206 212 218 221 221 222 224 223 222 221 221 222 224 225 225 223 221 222 223 224 226 228 230 232 232 232 233 235 237 238 240 241 241 242 242 241 241 238 232 231 231 231 231 229 227 224 226 225 218 215 215 215 218 227 237 243 245 241 237 247 258 264
225 227 208 206 218 224 225 228 225 225 230 236 235 235 231 227 229 216 214 223 226 230 239 245 238 214 212 215 209 203 200 201 203 204 204 206 209 214 219 220 221 223 224 223 222 222 223 224 225 226 225 222 222 224 225 227 229 231 233 234 235 235 236 237 238 240 240 239 240 241 239 240 239 232 229 229 230 228 226 225 225 228 227 224 223 220 219 221 227 233 237 241 241 238 244 253 259
222 234 223 217 222 218 216 222 230 233 234 236 238 237 228 223 230 223 213 215 226 239 247 253 256 236 222 215 208 202 198 200 202 201 204 209 211 213 217 219 220 222 224 224 224 224 224 224 225 225 226 225 224 225 226 228 229 231 233 235 237 237 236 237 238 239 240 238 239 240 239 239 238 234 230 229 228 225 223 224 224 226 232 235 233 227 224 227 227 227 229 232 234 234 240 249 256
205 216 219 216 215 222 226 223 223 231 237 237 239 241 231 213 221 226 224 225 235 252 259 258 261 256 241 223 210 202 199 199 201 201 203 207 210 210 210 213 217 221 223 224 224 225 225 226 226 226 226 226 226 226 228 229 230 231 234 235 237 238 238 238 238 239 239 238 238 239 238 237 237 234 230 225 223 224 225 220 217 227 241 241 235 228 230 237 233 224 225 228 230 233 241 251 259
200 202 213 216 211 214 224 224 220 223 234 237 238 245 240 216 206 213 224 232 234 240 250 254 257 260 254 234 215 205 201 201 202 203 203 203 207 207 202 204 209 214 219 221 222 222 224 226 227 227 227 226 227 227 228 230 231 232 234 235 237 239 238 239 238 238 238 237 237 239 238 237 236 232 228 223 222 228 228 218 216 225 232 231 228 224 228 239 235 223 224 229 230 233 242 252 260